Location: Rogalle
(42.8890°N, 1.1916°E)
Time: 23:33:14
(UTC+00:00)

YAOGAN 1 - Pass Details

Date: 13 December 2025
Orbit: 605 x 607 km, 97.8° (Epoch: 19 January)

Event Time Altitude Azimuth Distance (km) Brightness Sun altitude
Rises 18:54:31 0° 185° (S) 2,850 6.1 -27.1°
Reaches altitude 10° 18:56:48 10° 194° (SSW) 1,952 5.3 -27.6°
Maximum altitude 19:00:45 38° 262° (W) 938 3.9 -28.3°
Drops below altitude 10° 19:04:45 10° 331° (NNW) 1,966 5.4 -29.0°
Sets 19:07:04 0° 340° (NNW) 2,875 6.2 -29.4°
